Time,TemperatureF,DewpointF,PressureIn,WindDirection,WindDirectionDegrees,WindSpeedMPH,WindSpeedGustMPH,Humidity,HourlyPrecipIn,Conditions,Clouds,dailyrainin,SoftwareType,DateUTC
2013-03-24 00:03:00,35.0,18.0,-100.00,NNW,330,7.0,9.0,50,0.00,,,-99.99,,2013-03-24 04:03:00,
2013-03-24 00:13:00,34.0,17.0,-100.00,North,0,5.0,7.0,50,0.00,,,-99.99,,2013-03-24 04:13:00,
2013-03-24 00:23:00,34.0,17.0,-100.00,North,0,5.0,7.0,50,0.00,,,-99.99,,2013-03-24 04:23:00,
2013-03-24 00:33:00,34.0,18.0,-100.00,NNW,330,6.0,9.0,51,0.00,,,-99.99,,2013-03-24 04:33:00,
2013-03-24 00:43:00,33.0,17.0,-100.00,East,80,0.0,0.0,52,0.00,,,-99.99,,2013-03-24 04:43:00,
2013-03-24 00:52:00,33.0,17.0,-100.00,East,80,0.0,0.0,52,0.00,,,-99.99,,2013-03-24 04:52:00,
2013-03-24 01:03:00,31.0,17.0,-100.00,SW,220,1.0,2.0,55,0.00,,,-99.99,,2013-03-24 05:03:00,
2013-03-24 01:13:00,30.0,17.0,-100.00,SW,220,0.0,0.0,58,0.00,,,-99.99,,2013-03-24 05:13:00,
2013-03-24 01:23:00,30.0,17.0,-100.00,SW,220,0.0,0.0,58,0.00,,,-99.99,,2013-03-24 05:23:00,
2013-03-24 01:32:00,30.0,18.0,-100.00,SW,225,1.0,2.0,61,0.00,,,-99.99,,2013-03-24 05:32:00,
2013-03-24 01:43:00,31.0,19.0,-100.00,NNE,25,2.0,4.0,60,0.00,,,-99.99,,2013-03-24 05:43:00,
2013-03-24 01:52:00,29.0,18.0,-100.00,WSW,250,1.0,1.0,63,0.00,,,-99.99,,2013-03-24 05:52:00,
2013-03-24 02:02:00,29.0,18.0,-100.00,WSW,250,1.0,1.0,63,0.00,,,-99.99,,2013-03-24 06:02:00,
2013-03-24 02:12:00,29.0,18.0,-100.00,WSW,250,0.0,1.0,65,0.00,,,-99.99,,2013-03-24 06:12:00,
2013-03-24 02:22:00,28.0,19.0,-100.00,SW,220,1.0,1.0,67,0.00,,,-99.99,,2013-03-24 06:22:00,
2013-03-24 02:32:00,28.0,19.0,-100.00,SW,220,1.0,1.0,67,0.00,,,-99.99,,2013-03-24 06:32:00,
2013-03-24 02:42:00,28.0,19.0,-100.00,West,260,2.0,3.0,67,0.00,,,-99.99,,2013-03-24 06:42:00,
2013-03-24 02:52:00,28.0,19.0,-100.00,West,260,2.0,3.0,67,0.00,,,-99.99,,2013-03-24 06:52:00,
2013-03-24 03:02:00,28.0,18.0,-100.00,SE,145,0.0,0.0,66,0.00,,,-99.99,,2013-03-24 07:02:00,
2013-03-24 03:12:00,28.0,18.0,-100.00,SSE,155,1.0,1.0,67,0.00,,,-99.99,,2013-03-24 07:12:00,
2013-03-24 03:22:00,28.0,18.0,-100.00,SSE,155,1.0,1.0,67,0.00,,,-99.99,,2013-03-24 07:22:00,
2013-03-24 03:32:00,28.0,18.0,-100.00,West,270,0.0,0.0,67,0.00,,,-99.99,,2013-03-24 07:32:00,
2013-03-24 03:42:00,28.0,18.0,-100.00,SW,230,1.0,1.0,67,0.00,,,-99.99,,2013-03-24 07:42:00,
2013-03-24 03:52:00,28.0,18.0,-100.00,SW,230,1.0,1.0,67,0.00,,,-99.99,,2013-03-24 07:52:00,
2013-03-24 04:03:00,28.0,19.0,-100.00,SW,215,0.0,1.0,69,0.00,,,-99.99,,2013-03-24 08:03:00,
2013-03-24 04:12:00,28.0,20.0,-100.00,WSW,255,1.0,1.0,70,0.00,,,-99.99,,2013-03-24 08:12:00,
2013-03-24 04:22:00,28.0,19.0,-100.00,SSW,195,0.0,0.0,69,0.00,,,-99.99,,2013-03-24 08:22:00,
2013-03-24 04:32:00,28.0,19.0,-100.00,SSW,195,0.0,0.0,69,0.00,,,-99.99,,2013-03-24 08:32:00,
2013-03-24 04:42:00,28.0,19.0,-100.00,SW,235,1.0,2.0,69,0.00,,,-99.99,,2013-03-24 08:42:00,
2013-03-24 04:52:00,28.0,19.0,-100.00,SW,235,1.0,2.0,69,0.00,,,-99.99,,2013-03-24 08:52:00,
2013-03-24 05:02:00,28.0,19.0,-100.00,NW,305,1.0,2.0,69,0.00,,,-99.99,,2013-03-24 09:02:00,
2013-03-24 05:12:00,28.0,19.0,-100.00,SSW,200,0.0,0.0,69,0.00,,,-99.99,,2013-03-24 09:12:00,
2013-03-24 05:22:00,28.0,19.0,-100.00,SSW,200,0.0,0.0,69,0.00,,,-99.99,,2013-03-24 09:22:00,
2013-03-24 05:33:00,28.0,19.0,-100.00,SW,215,0.0,0.0,70,0.00,,,-99.99,,2013-03-24 09:33:00,
2013-03-24 05:42:00,27.0,19.0,-100.00,North,0,2.0,3.0,71,0.00,,,-99.99,,2013-03-24 09:42:00,
2013-03-24 05:52:00,27.0,19.0,-100.00,West,275,0.0,0.0,72,0.00,,,-99.99,,2013-03-24 09:52:00,
2013-03-24 06:03:00,27.0,19.0,-100.00,West,275,0.0,0.0,72,0.00,,,-99.99,,2013-03-24 10:03:00,
2013-03-24 06:12:00,28.0,20.0,-100.00,WNW,285,1.0,1.0,72,0.00,,,-99.99,,2013-03-24 10:12:00,
2013-03-24 06:22:00,28.0,20.0,-100.00,WNW,295,2.0,2.0,72,0.00,,,-99.99,,2013-03-24 10:22:00,
2013-03-24 06:33:00,28.0,20.0,-100.00,WNW,295,2.0,2.0,72,0.00,,,-99.99,,2013-03-24 10:33:00,
2013-03-24 06:42:00,28.0,20.0,-100.00,West,260,0.0,0.0,71,0.00,,,-99.99,,2013-03-24 10:42:00,
2013-03-24 06:52:00,28.0,20.0,-100.00,West,260,0.0,0.0,71,0.00,,,-99.99,,2013-03-24 10:52:00,
2013-03-24 07:03:00,28.0,19.0,-100.00,North,5,0.0,0.0,71,0.00,,,-99.99,,2013-03-24 11:03:00,
2013-03-24 07:12:00,28.0,20.0,-100.00,North,350,0.0,0.0,72,0.00,,,-99.99,,2013-03-24 11:12:00,
2013-03-24 07:22:00,28.0,20.0,-100.00,North,350,0.0,0.0,72,0.00,,,-99.99,,2013-03-24 11:22:00,
2013-03-24 07:33:00,27.0,19.0,-100.00,WSW,255,0.0,0.0,72,0.00,,,-99.99,,2013-03-24 11:33:00,
2013-03-24 07:42:00,27.0,19.0,-100.00,NE,35,0.0,0.0,73,0.00,,,-99.99,,2013-03-24 11:42:00,
2013-03-24 07:52:00,27.0,19.0,-100.00,NE,35,0.0,0.0,73,0.00,,,-99.99,,2013-03-24 11:52:00,
2013-03-24 08:03:00,27.0,20.0,-100.00,NE,40,0.0,0.0,74,0.00,,,-99.99,,2013-03-24 12:03:00,
2013-03-24 08:12:00,27.0,20.0,-100.00,NE,40,0.0,0.0,74,0.00,,,-99.99,,2013-03-24 12:12:00,
2013-03-24 08:22:00,27.0,20.0,-100.00,NE,40,0.0,0.0,74,0.00,,,-99.99,,2013-03-24 12:22:00,
2013-03-24 08:32:00,28.0,21.0,-100.00,West,260,0.0,0.0,75,0.00,,,-99.99,,2013-03-24 12:32:00,
2013-03-24 08:42:00,28.0,21.0,-100.00,NNE,25,0.0,1.0,75,0.00,,,-99.99,,2013-03-24 12:42:00,
2013-03-24 08:52:00,28.0,21.0,-100.00,NNE,25,0.0,1.0,75,0.00,,,-99.99,,2013-03-24 12:52:00,
2013-03-24 09:02:00,29.0,22.0,-100.00,NE,55,0.0,0.0,75,0.00,,,-99.99,,2013-03-24 13:02:00,
2013-03-24 09:12:00,30.0,23.0,-100.00,East,90,0.0,0.0,74,0.00,,,-99.99,,2013-03-24 13:12:00,
2013-03-24 09:22:00,30.0,23.0,-100.00,East,90,0.0,0.0,74,0.00,,,-99.99,,2013-03-24 13:22:00,
2013-03-24 09:32:00,31.0,23.0,-100.00,NNE,30,1.0,1.0,72,0.00,,,-99.99,,2013-03-24 13:32:00,
2013-03-24 09:42:00,32.0,22.0,-100.00,ENE,75,2.0,4.0,68,0.00,,,-99.99,,2013-03-24 13:42:00,
2013-03-24 09:52:00,32.0,22.0,-100.00,ENE,75,2.0,4.0,68,0.00,,,-99.99,,2013-03-24 13:52:00,
2013-03-24 10:02:00,32.0,22.0,-100.00,East,80,1.0,2.0,66,0.00,,,-99.99,,2013-03-24 14:02:00,
2013-03-24 10:12:00,33.0,22.0,-100.00,NE,45,3.0,6.0,63,0.00,,,-99.99,,2013-03-24 14:12:00,
2013-03-24 10:22:00,33.0,22.0,-100.00,NE,45,3.0,6.0,63,0.00,,,-99.99,,2013-03-24 14:22:00,
2013-03-24 10:32:00,33.0,-7.0,-100.00,ENE,65,6.0,9.0,17,0.00,,,-99.99,,2013-03-24 14:32:00,
2013-03-24 10:42:00,34.0,21.0,-100.00,NE,50,9.0,10.0,58,0.00,,,-99.99,,2013-03-24 14:42:00,
2013-03-24 10:52:00,34.0,21.0,-100.00,NE,50,9.0,10.0,58,0.00,,,-99.99,,2013-03-24 14:52:00,
2013-03-24 11:02:00,34.0,20.0,-100.00,NE,45,4.0,6.0,57,0.00,,,-99.99,,2013-03-24 15:02:00,
2013-03-24 11:12:00,34.0,20.0,-100.00,East,90,5.0,6.0,57,0.00,,,-99.99,,2013-03-24 15:12:00,
2013-03-24 11:22:00,34.0,20.0,-100.00,East,90,5.0,6.0,57,0.00,,,-99.99,,2013-03-24 15:22:00,
2013-03-24 11:33:00,34.0,20.0,-100.00,ESE,105,7.0,8.0,56,0.00,,,-99.99,,2013-03-24 15:33:00,
2013-03-24 11:43:00,35.0,20.0,-100.00,ESE,115,4.0,5.0,56,0.00,,,-99.99,,2013-03-24 15:43:00,
2013-03-24 11:53:00,35.0,20.0,-100.00,ESE,115,4.0,5.0,56,0.00,,,-99.99,,2013-03-24 15:53:00,
2013-03-24 12:03:00,35.0,20.0,-100.00,East,90,2.0,4.0,55,0.00,,,-99.99,,2013-03-24 16:03:00,
2013-03-24 12:12:00,35.0,20.0,-100.00,ESE,120,7.0,8.0,54,0.00,,,-99.99,,2013-03-24 16:12:00,
2013-03-24 12:23:00,35.0,19.0,-100.00,SE,125,6.0,7.0,53,0.00,,,-99.99,,2013-03-24 16:23:00,
2013-03-24 12:33:00,35.0,19.0,-100.00,SE,125,6.0,7.0,53,0.00,,,-99.99,,2013-03-24 16:33:00,
2013-03-24 12:42:00,35.0,20.0,-100.00,ESE,120,4.0,5.0,53,0.00,,,-99.99,,2013-03-24 16:42:00,
2013-03-24 12:52:00,35.0,20.0,-100.00,ESE,120,4.0,5.0,53,0.00,,,-99.99,,2013-03-24 16:52:00,
2013-03-24 13:03:00,36.0,16.0,-100.00,ESE,110,2.0,4.0,45,0.00,,,-99.99,,2013-03-24 17:03:00,
2013-03-24 13:12:00,36.0,20.0,-100.00,SE,125,7.0,8.0,51,0.00,,,-99.99,,2013-03-24 17:12:00,
2013-03-24 13:23:00,36.0,20.0,-100.00,SE,125,7.0,8.0,51,0.00,,,-99.99,,2013-03-24 17:23:00,
2013-03-24 13:33:00,37.0,20.0,-100.00,ENE,60,4.0,7.0,51,0.00,,,-99.99,,2013-03-24 17:33:00,
2013-03-24 13:42:00,36.0,19.0,-100.00,ESE,115,7.0,7.0,50,0.00,,,-99.99,,2013-03-24 17:42:00,
2013-03-24 13:52:00,36.0,19.0,-100.00,ESE,115,7.0,7.0,50,0.00,,,-99.99,,2013-03-24 17:52:00,
2013-03-24 14:03:00,36.0,19.0,-100.00,SE,140,5.0,7.0,50,0.00,,,-99.99,,2013-03-24 18:03:00,
2013-03-24 14:12:00,36.0,19.0,-100.00,ESE,115,4.0,6.0,49,0.00,,,-99.99,,2013-03-24 18:12:00,
2013-03-24 14:22:00,36.0,19.0,-100.00,ESE,115,4.0,6.0,49,0.00,,,-99.99,,2013-03-24 18:22:00,
2013-03-24 14:33:00,37.0,19.0,-100.00,ESE,105,7.0,11.0,49,0.00,,,-99.99,,2013-03-24 18:33:00,
2013-03-24 14:43:00,37.0,19.0,-100.00,SE,140,6.0,8.0,48,0.00,,,-99.99,,2013-03-24 18:43:00,
2013-03-24 14:52:00,37.0,19.0,-100.00,SE,140,6.0,8.0,48,0.00,,,-99.99,,2013-03-24 18:52:00,
2013-03-24 15:03:00,38.0,19.0,-100.00,SE,135,6.0,7.0,48,0.00,,,-99.99,,2013-03-24 19:03:00,
2013-03-24 15:12:00,38.0,20.0,-100.00,SSE,160,6.0,9.0,47,0.00,,,-99.99,,2013-03-24 19:12:00,
2013-03-24 15:22:00,38.0,20.0,-100.00,SSE,160,6.0,9.0,47,0.00,,,-99.99,,2013-03-24 19:22:00,
2013-03-24 15:32:00,38.0,19.0,-100.00,SE,145,6.0,7.0,46,0.00,,,-99.99,,2013-03-24 19:32:00,
2013-03-24 15:42:00,38.0,19.0,-100.00,SE,130,6.0,8.0,46,0.00,,,-99.99,,2013-03-24 19:42:00,
2013-03-24 15:52:00,38.0,19.0,-100.00,SE,130,6.0,8.0,46,0.00,,,-99.99,,2013-03-24 19:52:00,
2013-03-24 16:03:00,38.0,19.0,-100.00,East,95,5.0,7.0,46,0.00,,,-99.99,,2013-03-24 20:03:00,
2013-03-24 16:12:00,38.0,18.0,-100.00,SE,130,3.0,6.0,46,0.00,,,-99.99,,2013-03-24 20:12:00,
2013-03-24 16:22:00,37.0,18.0,-100.00,ESE,110,6.0,7.0,45,0.00,,,-99.99,,2013-03-24 20:22:00,
2013-03-24 16:32:00,37.0,18.0,-100.00,ESE,110,6.0,7.0,45,0.00,,,-99.99,,2013-03-24 20:32:00,
2013-03-24 16:42:00,37.0,17.0,-100.00,East,95,7.0,7.0,44,0.00,,,-99.99,,2013-03-24 20:42:00,
2013-03-24 16:52:00,38.0,17.0,-100.00,East,100,6.0,7.0,44,0.00,,,-99.99,,2013-03-24 20:52:00,
2013-03-24 17:02:00,38.0,17.0,-100.00,East,100,6.0,7.0,44,0.00,,,-99.99,,2013-03-24 21:02:00,
2013-03-24 17:12:00,38.0,18.0,-100.00,SE,130,6.0,7.0,44,0.00,,,-99.99,,2013-03-24 21:12:00,
2013-03-24 17:22:00,37.0,18.0,-100.00,ESE,120,4.0,5.0,45,0.00,,,-99.99,,2013-03-24 21:22:00,
2013-03-24 17:33:00,37.0,18.0,-100.00,ESE,120,4.0,5.0,45,0.00,,,-99.99,,2013-03-24 21:33:00,
2013-03-24 17:43:00,37.0,18.0,-100.00,SSE,165,2.0,2.0,46,0.00,,,-99.99,,2013-03-24 21:43:00,
2013-03-24 17:52:00,37.0,18.0,-100.00,SSE,165,2.0,2.0,46,0.00,,,-99.99,,2013-03-24 21:52:00,
2013-03-24 18:03:00,37.0,19.0,-100.00,East,95,4.0,5.0,49,0.00,,,-99.99,,2013-03-24 22:03:00,
2013-03-24 18:13:00,36.0,20.0,-100.00,SE,140,2.0,4.0,52,0.00,,,-99.99,,2013-03-24 22:13:00,
2013-03-24 18:23:00,36.0,21.0,-100.00,South,180,2.0,4.0,55,0.00,,,-99.99,,2013-03-24 22:23:00,
2013-03-24 18:33:00,36.0,21.0,-100.00,South,180,2.0,4.0,55,0.00,,,-99.99,,2013-03-24 22:33:00,
2013-03-24 18:43:00,35.0,22.0,-100.00,SSE,150,1.0,3.0,60,0.00,,,-99.99,,2013-03-24 22:43:00,
2013-03-24 18:52:00,35.0,22.0,-100.00,SSE,150,1.0,3.0,60,0.00,,,-99.99,,2013-03-24 22:52:00,
2013-03-24 19:03:00,34.0,24.0,-100.00,SSW,210,2.0,2.0,65,0.00,,,-99.99,,2013-03-24 23:03:00,
2013-03-24 19:12:00,34.0,25.0,-100.00,SSW,200,0.0,1.0,70,0.00,,,-99.99,,2013-03-24 23:12:00,
2013-03-24 19:22:00,34.0,25.0,-100.00,SSW,200,0.0,1.0,70,0.00,,,-99.99,,2013-03-24 23:22:00,
2013-03-24 19:32:00,34.0,26.0,-100.00,SSE,160,0.0,1.0,73,0.02,,,-99.99,,2013-03-24 23:32:00,
2013-03-24 19:42:00,33.0,26.0,-100.00,SSE,150,0.0,1.0,77,0.04,,,-99.99,,2013-03-24 23:42:00,
2013-03-24 19:52:00,33.0,26.0,-100.00,SSE,150,0.0,1.0,77,0.04,,,-99.99,,2013-03-24 23:52:00,
2013-03-24 20:02:00,32.0,27.0,-100.00,ESE,110,2.0,2.0,81,0.01,,,-99.99,,2013-03-25 00:02:00,
2013-03-24 20:12:00,32.0,28.0,-100.00,NE,50,2.0,3.0,84,0.02,,,-99.99,,2013-03-25 00:12:00,
2013-03-24 20:22:00,32.0,28.0,-100.00,NE,50,2.0,3.0,84,0.02,,,-99.99,,2013-03-25 00:22:00,
2013-03-24 20:32:00,32.0,28.0,-100.00,ENE,75,1.0,1.0,86,0.02,,,-99.99,,2013-03-25 00:32:00,
2013-03-24 20:43:00,32.0,28.0,-100.00,SE,130,0.0,1.0,88,0.01,,,-99.99,,2013-03-25 00:43:00,
2013-03-24 20:52:00,32.0,29.0,-100.00,NE,50,0.0,1.0,89,0.01,,,-99.99,,2013-03-25 00:52:00,
2013-03-24 21:02:00,32.0,29.0,-100.00,NE,50,0.0,1.0,89,0.01,,,-99.99,,2013-03-25 01:02:00,
2013-03-24 21:12:00,31.0,29.0,-100.00,NE,50,2.0,4.0,90,0.03,,,-99.99,,2013-03-25 01:12:00,
2013-03-24 21:22:00,31.0,29.0,-100.00,NE,50,2.0,4.0,90,0.03,,,-99.99,,2013-03-25 01:22:00,
2013-03-24 21:32:00,31.0,29.0,-100.00,NNE,30,1.0,2.0,91,0.01,,,-99.99,,2013-03-25 01:32:00,
2013-03-24 21:42:00,31.0,29.0,-100.00,North,10,0.0,0.0,91,0.00,,,-99.99,,2013-03-25 01:42:00,
2013-03-24 21:52:00,31.0,29.0,-100.00,North,10,0.0,0.0,91,0.00,,,-99.99,,2013-03-25 01:52:00,
2013-03-24 22:02:00,31.0,29.0,-100.00,SE,135,0.0,0.0,92,0.00,,,-99.99,,2013-03-25 02:02:00,
2013-03-24 22:12:00,31.0,29.0,-100.00,ENE,75,0.0,0.0,92,0.00,,,-99.99,,2013-03-25 02:12:00,
2013-03-24 22:22:00,31.0,29.0,-100.00,ENE,75,0.0,0.0,92,0.00,,,-99.99,,2013-03-25 02:22:00,
2013-03-24 22:33:00,31.0,29.0,-100.00,ESE,105,0.0,0.0,92,0.00,,,-99.99,,2013-03-25 02:33:00,
2013-03-24 22:43:00,31.0,29.0,-100.00,SE,135,0.0,0.0,93,0.00,,,-99.99,,2013-03-25 02:43:00,
2013-03-24 22:52:00,31.0,29.0,-100.00,SE,125,0.0,0.0,93,0.00,,,-99.99,,2013-03-25 02:52:00,
2013-03-24 23:03:00,31.0,29.0,-100.00,SE,125,0.0,0.0,93,0.00,,,-99.99,,2013-03-25 03:03:00,
2013-03-24 23:13:00,31.0,29.0,-100.00,NE,50,0.0,0.0,93,0.00,,,-99.99,,2013-03-25 03:13:00,
2013-03-24 23:23:00,31.0,29.0,-100.00,NE,50,0.0,0.0,93,0.00,,,-99.99,,2013-03-25 03:23:00,
2013-03-24 23:33:00,31.0,29.0,-100.00,North,0,0.0,0.0,93,0.00,,,-99.99,,2013-03-25 03:33:00,
2013-03-24 23:43:00,31.0,29.0,-100.00,NW,310,1.0,1.0,93,0.00,,,-99.99,,2013-03-25 03:43:00,
2013-03-24 23:53:00,31.0,29.0,-100.00,NW,310,1.0,1.0,93,0.00,,,-99.99,,2013-03-25 03:53:00,